Regional Weather Roundup
Issued by NWS Nashville, TN

Home | Current Version | Previous Version | Text Only | Print | Product List | Glossary On
Versions: 1 2 3 4 5 6 7 8 9 10 11 12 13 14 15 16 17 18 19 20 21 22 23 24 25 26 27 28 29 30 31 32 33 34 35 36 37 38 39 40 41 42 43 44 45 46 47 48 49 50
739
ASUS44 KOHX 102010
RWROHX
MIDDLE TENNESSEE HOURLY WEATHER ROUNDUP
NATIONAL WEATHER SERVICE NASHVILLE TN
200 PM CST WED FEB 10 2016

NOTE: "FAIR" INDICATES FEW OR NO CLOUDS BELOW 12,000 FEET WITH
NO SIGNIFICANT WEATHER AND/OR OBSTRUCTIONS TO VISIBILITY.

* THESE REPORTS ARE NOT UNDER NWS QUALITY CONTROL AND MAY NOT
  REPORT WEATHER SUCH AS PRECIPITATION AND FOG.


TNZ005>011-023>034-057-059-062>066-078-080-102100
...NORTHERN MIDDLE TENNESSEE...

CITY           SKY/WX    TMP DP  RH WIND       PRES   REMARKS
CLARKSVILLE    CLOUDY    26  10  50 SW9       30.15F WCI  17
CROSSVILLE     MOSUNNY   22   6  50 W13G26    30.04S WCI  10
DICKSON        MOSUNNY   27  10  50 SW9       30.12F WCI  17
LIVINGSTON     SUNNY     24   5  44 W14       30.06F WCI  12
NASHVILLE      CLOUDY    29  10  45 W7G16     30.16F WCI  22
PORTLAND       MOSUNNY  N/A N/A N/A W12       30.13
ROCKWOOD       MOSUNNY   25   5  42 W9        30.02F WCI  16
SMYRNA         CLOUDY    28  14  55 W13       30.17F WCI  17
SPARTA         SUNNY     28   9  43 NW10      30.08F WCI  19
$$
TNZ056-058-060-061-075>077-079-093>097-102100
...SOUTHERN MIDDLE TENNESSEE...

CITY           SKY/WX    TMP DP  RH WIND       PRES   REMARKS
COLUMBIA       SUNNY     30  12  47 W8        30.13F WCI  23
FAYETTEVILLE   SUNNY     32   9  37 SW15      30.14F WCI  22
LEWISBURG      MOSUNNY   31   8  38 W7        30.15F WCI  24
MCMINNVILLE    SUNNY     27  12  54 SW7       30.11F WCI  19
SHELBYVILLE    MOSUNNY   32  16  51 SW12      30.15F WCI  23
TULLAHOMA      SUNNY     28   9  43 W9        30.12F WCI  20
WINCHESTER     SUNNY     30  12  47 VRB6      30.13F WCI  24
$$


...KEY TO REMARKS...
VSB - VISIBILITY IN MILES
WCI - WIND CHILL INDEX
HX  - HEAT INDEX





USA.gov is the U.S. government's official web portal to all federal, state and local government web resources and services.